Williston, ND

3:45 AM CST on January 17, 2018 (GMT -0600)
Sloulin International

Weather History for KISN - March, 2013

Change the Weather History Date:

Saturday, March 23, 2013

  Actual Average Record
Temperature  
Mean Temperature 8 °F 33 °F  
Max Temperature 19 °F 44 °F 76 °F (1993)
Min Temperature -4 °F 21 °F -22 °F (1965)
Degree Days  
Heating Degree Days 57 32  
Month to date heating degree days 1087 866  
Since 1 July heating degree days 7675 7634  
Cooling Degree Days 0 0  
Month to date cooling degree days 0 0  
Year to date cooling degree days 0 0  
Moisture  
Dew Point 7 °F    
Average Humidity 86    
Maximum Humidity 95    
Minimum Humidity 76    
Precipitation  
Precipitation 0.01 in 0.03 in 0.55 in (1975)
Month to date precipitation 1.31 0.51  
Year to date precipitation 1.88 1.49  
Snow  
Snow T in - - ()
Month to date snowfall 14.6  
Snow Depth 8.00 in    
Sea Level Pressure  
Sea Level Pressure 30.24 in    
Wind  
Wind Speed 7 mph (WNW)    
Max Wind Speed 14 mph    
Max Gust Speed 17 mph    
Visibility 5 miles    
Events Snow    
T = Trace of Precipitation, MM = Missing Value Source: NWS Daily Summary

Daily Weather History Graph

Daily Weather History Graph

Search for Another Location

Airport or City:

Trip Planner

Search our weather history database for the weather conditions in past years. The results will help you decide how hot, cold, wet, or windy it might be!

Date:

Astronomy

Mar. 23, 2013 Rise Set
Actual Time 7:50 AM CDT 8:12 PM CDT
Civil Twilight 7:19 AM CDT 8:43 PM CDT
Nautical Twilight 6:42 AM CDT 9:20 PM CDT
Astronomical Twilight 6:04 AM CDT 9:58 PM CDT
Moon 4:27 PM CDT (3/23) 5:43 AM CDT (3/23)
Length of Visible Light 13h 23m
Length of Day
12h 21m
Waxing Gibbous, 85% of the Moon is Illuminated
Mar 23
Waxing Gibbous
Mar 27
Full
Apr 2
Last Quarter
Apr 10
New
Apr 18
First Quarter

Hourly Weather History & Observations

Time (CDT) Temp. Windchill Dew Point Humidity Pressure Visibility Wind Dir Wind Speed Gust Speed Precip Events Conditions
12:15 AM 6.8 °F -4.8 °F 6.8 °F 100% 30.08 in 9.0 mi SW 6.9 mph - N/A   Overcast
12:46 AM 8.6 °F - 6.8 °F 92% 30.08 in 10.0 mi Calm Calm - N/A   Scattered Clouds
12:52 AM 7.0 °F 0.1 °F 5.0 °F 92% 30.21 in 10.0 mi WSW 3.5 mph - N/A   Partly Cloudy
1:52 AM 1.9 °F -11.8 °F -0.0 °F 91% 30.22 in 10.0 mi SW 8.1 mph - N/A   Clear
2:52 AM 3.9 °F -3.4 °F 1.9 °F 91% 30.22 in 10.0 mi WSW 3.5 mph - N/A   Clear
3:52 AM 1.9 °F - -0.0 °F 91% 30.23 in 10.0 mi Calm Calm - N/A   Clear
4:52 AM -0.0 °F -11.6 °F -2.9 °F 88% 30.23 in 10.0 mi WSW 5.8 mph - N/A   Clear
5:03 AM -0.4 °F -8.3 °F -0.4 °F 100% 30.10 in 10.0 mi WSW 3.5 mph - N/A   Partly Cloudy
5:52 AM -0.0 °F - -2.0 °F 91% 30.25 in 8.0 mi Calm Calm - N/A   Overcast
6:52 AM 1.0 °F -8.7 °F -2.0 °F 87% 30.27 in 7.0 mi SW 4.6 mph - 0.00 in   Overcast
7:19 AM -0.4 °F -10.4 °F -4.0 °F 85% 30.13 in 10.0 mi SW 4.6 mph - N/A   Mostly Cloudy
7:24 AM -0.4 °F -10.4 °F -2.2 °F 92% 30.14 in 10.0 mi SW 4.6 mph - N/A   Scattered Clouds
7:52 AM -0.9 °F -14.1 °F -5.1 °F 83% 30.28 in 7.0 mi SSW 6.9 mph - N/A   Clear
8:52 AM -0.9 °F - -2.0 °F 95% 30.30 in 10.0 mi Calm Calm - N/A   Partly Cloudy
9:41 AM -0.4 °F -12.0 °F -2.2 °F 92% 30.16 in 7.0 mi SW 5.8 mph - N/A   Mostly Cloudy
9:52 AM 1.4 °F - -0.4 °F 92% 30.17 in 10.0 mi Calm Calm - N/A   Overcast
10:30 AM 3.2 °F -7.8 °F 1.4 °F 92% 30.17 in 2.5 mi SW 5.8 mph - 0.00 in Snow Light Snow
10:42 AM 3.2 °F -4.2 °F 1.4 °F 92% 30.17 in 1.8 mi SW 3.5 mph - 0.00 in Snow Light Snow
10:52 AM 3.9 °F - 3.0 °F 96% 30.32 in 2.5 mi Calm Calm - 0.00 in Snow Light Snow
10:59 AM 5.0 °F - 3.2 °F 92% 30.18 in 4.0 mi Calm Calm - 0.00 in Snow Light Snow
11:08 AM 5.0 °F -4.1 °F 3.2 °F 92% 30.18 in 1.8 mi SW 4.6 mph - 0.00 in Snow Light Snow
11:34 AM 8.6 °F -1.3 °F 3.2 °F 79% 30.19 in 2.5 mi WNW 5.8 mph - 0.00 in Snow Light Snow
11:44 AM 8.6 °F -2.6 °F 3.2 °F 79% 30.19 in 3.0 mi West 6.9 mph - 0.00 in Snow Light Snow
11:52 AM 10.0 °F 3.6 °F 5.0 °F 80% 30.33 in 3.0 mi West 3.5 mph - 0.00 in Snow Light Snow
12:02 PM 10.4 °F 2.2 °F 6.8 °F 85% 30.19 in 2.5 mi West 4.6 mph - 0.00 in Snow Light Snow
12:07 PM 10.4 °F 0.8 °F 6.8 °F 85% 30.19 in 3.0 mi West 5.8 mph - 0.00 in Snow Light Snow
12:52 PM 12.9 °F 0.7 °F 9.0 °F 84% 30.34 in 3.0 mi WNW 9.2 mph - 0.00 in Snow Light Snow
12:57 PM 14.0 °F 1.2 °F 8.6 °F 79% 30.20 in 2.0 mi WNW 10.4 mph - 0.00 in Snow Light Snow
1:13 PM 14.0 °F 2.9 °F 8.6 °F 79% 30.20 in 3.0 mi WNW 8.1 mph - 0.00 in Snow Light Snow
1:24 PM 15.8 °F 5.1 °F 10.4 °F 79% 30.20 in 2.5 mi WNW 8.1 mph - 0.00 in Snow Light Snow
1:32 PM 15.8 °F 5.1 °F 10.4 °F 79% 30.20 in 3.0 mi WNW 8.1 mph - 0.00 in Snow Light Snow
1:52 PM 16.0 °F 5.3 °F 10.9 °F 81% 30.34 in 9.0 mi NW 8.1 mph - 0.00 in   Overcast
2:07 PM 17.6 °F 5.7 °F 10.4 °F 73% 30.20 in 10.0 mi WNW 10.4 mph - N/A   Overcast
2:15 PM 17.6 °F 5.7 °F 10.4 °F 73% 30.20 in 6.0 mi NW 10.4 mph - 0.00 in Snow Light Snow
2:23 PM 17.6 °F 5.0 °F 12.2 °F 79% 30.20 in 4.0 mi WNW 11.5 mph - 0.00 in Snow Light Snow
2:52 PM 17.6 °F 5.0 °F 12.2 °F 79% 30.19 in 4.0 mi WNW 11.5 mph - N/A Snow Light Snow
3:19 PM 17.6 °F 5.0 °F 12.2 °F 79% 30.20 in 3.0 mi NW 11.5 mph - 0.00 in Snow Light Snow
3:26 PM 17.6 °F 5.0 °F 12.2 °F 79% 30.20 in 2.5 mi NW 11.5 mph - 0.00 in Snow Light Snow
3:34 PM 19.4 °F 7.2 °F 12.2 °F 74% 30.20 in 3.0 mi NW 11.5 mph - 0.00 in Snow Light Snow
3:47 PM 17.6 °F 5.0 °F 12.2 °F 79% 30.19 in 6.0 mi NW 11.5 mph - 0.00 in Snow Light Snow
3:52 PM 18.0 °F 4.8 °F 12.0 °F 78% 30.33 in 6.0 mi NW 12.7 mph - 0.00 in   Haze
4:35 PM 17.6 °F 4.3 °F 12.2 °F 79% 30.20 in 2.5 mi NNW 12.7 mph - 0.00 in Snow Light Snow
4:52 PM 18.0 °F 5.4 °F 12.9 °F 81% 30.35 in 2.5 mi NW 11.5 mph - 0.00 in Snow Light Snow
5:02 PM 17.6 °F 4.3 °F 12.2 °F 79% 30.21 in 3.0 mi WNW 12.7 mph - 0.00 in Snow Light Snow
5:32 PM 17.6 °F 3.7 °F 12.2 °F 79% 30.21 in 4.0 mi NW 13.8 mph - 0.00 in Snow Light Snow
5:52 PM 17.1 °F 4.3 °F 12.0 °F 81% 30.35 in 4.0 mi NW 11.5 mph - 0.00 in Snow Light Snow
6:37 PM 17.6 °F 6.4 °F 12.2 °F 79% 30.22 in 2.0 mi NNW 9.2 mph - 0.00 in Snow Light Snow
6:44 PM 17.6 °F 5.0 °F 12.2 °F 79% 30.22 in 1.8 mi NNW 11.5 mph - 0.00 in Snow Light Snow
6:52 PM 17.1 °F 5.0 °F 12.0 °F 81% 30.37 in 2.0 mi NNW 10.4 mph - 0.00 in Snow Light Snow
7:13 PM 17.6 °F 5.7 °F 12.2 °F 79% 30.22 in 1.8 mi NW 10.4 mph - 0.00 in Snow Light Snow
7:23 PM 17.6 °F 6.4 °F 12.2 °F 79% 30.22 in 2.5 mi NNW 9.2 mph - 0.00 in Snow Light Snow
7:52 PM 16.0 °F 5.3 °F 12.9 °F 88% 30.37 in 2.0 mi NW 8.1 mph - 0.00 in Snow Light Snow
7:57 PM 15.8 °F 4.2 °F 12.2 °F 86% 30.23 in 3.0 mi NNW 9.2 mph - 0.00 in Snow Light Snow
8:26 PM 14.0 °F 2.9 °F 10.4 °F 86% 30.23 in 4.0 mi NNW 8.1 mph - 0.00 in   Overcast
8:52 PM 10.9 °F -1.8 °F 9.0 °F 92% 30.38 in 9.0 mi NW 9.2 mph - 0.00 in   Overcast
9:01 PM 10.4 °F -2.4 °F 8.6 °F 92% 30.23 in 10.0 mi NW 9.2 mph - N/A   Overcast
9:52 PM 14.0 °F 2.9 °F 10.9 °F 88% 30.38 in 4.0 mi NNW 8.1 mph - 0.00 in Snow Light Snow
10:32 PM 14.0 °F 0.5 °F 10.4 °F 86% 30.24 in 2.5 mi NW 11.5 mph - 0.00 in Snow Light Snow
10:52 PM 14.0 °F 0.5 °F 10.9 °F 88% 30.39 in 2.5 mi NW 11.5 mph - 0.00 in Snow Light Snow
11:02 PM 14.0 °F 0.5 °F 10.4 °F 86% 30.24 in 3.0 mi NW 11.5 mph - 0.00 in Snow Light Snow
11:10 PM 14.0 °F 0.5 °F 10.4 °F 86% 30.24 in 6.0 mi NW 11.5 mph - 0.00 in Snow Light Snow
11:49 PM 14.0 °F -0.2 °F 10.4 °F 86% 30.24 in 2.5 mi NNW 12.7 mph - 0.00 in Snow Light Snow
11:52 PM 14.0 °F 0.5 °F 10.9 °F 88% 30.38 in 2.5 mi NNW 11.5 mph - 0.00 in Snow Light Snow
11:58 PM 14.0 °F 0.5 °F 10.4 °F 86% 30.24 in 3.0 mi NNW 11.5 mph - 0.00 in Snow Light Snow